Location: Bartshausen
(51.8454°N, 9.8167°E)
Time: 03:17:23
(UTC+00:00)

ADEOS Rocket - Pass Details

Date: 08 November 2025
Orbit: 859 x 1304 km, 98.7° (Epoch: 15 December)

Event Time Altitude Azimuth Distance (km) Brightness Sun altitude
Rises 04:15:59 0° 11° (N) 3,715 6.2 -20.5°
Reaches altitude 10° 04:18:35 10° 2° (N) 2,823 5.4 -20.0°
Maximum altitude 04:24:11 33° 301° (WNW) 1,748 3.8 -19.2°
Enters shadow 04:25:46 30° 275° (W) 1,892 3.9 -18.9°
